Home   Weather   Ibadan   Past weeks

Flag for Nigeria Past Weather in Ibadan, Nigeria — Yesterday and Last 2 Weeks

Now
82 °F

Passing clouds.


Feels Like: 92 °F
Forecast: 76 / 89 °F
Wind: 2 mph from North

Location: Lagos / Ikeja

Current Time: Jan 22, 2017 at 1:03:19 am

Latest Report: Jan 22, 2017 at 12:00 am


Visibility: 5 mi

Pressure: 29.86 "Hg

Humidity: 89%

Dew Point: 79 °F

Location of IbadanLocation

Past Weather in Ibadan — Graph

°F

Ibadan Temperature Yesterday

Maximum temperature yesterday: 93 °F (at 3:00 pm)
Minimum temperature yesterday: 79 °F (at 5:00 am)
Average temperature yesterday: 84 °F

High & Low Weather Summary for the Past Weeks

 TemperatureHumidityPressure
High97 °F (Jan 8, 3:00 pm)100% (Jan 8, 9:04 am)29.98 "Hg (Jan 8, 9:04 am)
Low68 °F (Jan 14, 8:00 am)23% (Jan 14, 3:00 pm)29.74 "Hg (Jan 10, 5:00 pm)
Average83 °F78%29.86 "Hg
* Reported Jan 6 11:00 pm — Jan 21 11:00 pm, Ibadan, Weather by CustomWeather, © 2017

Note: Actual official high and low records may vary slightly from our data, if they occured in-between our weather recording intervals... More about our weather records

Advertising

Ibadan Weather History for the Previous 24 Hours

Scroll right to see more
 ConditionsComfort  
Time TempWeatherWind HumidityBarometerVisibility
11:00 pm
Sat, Jan 21
82 °FPassing clouds.2 mph89%29.89 "Hg5 mi
10:00 pm82 °FPassing clouds.3 mph89%29.89 "Hg5 mi
9:00 pm82 °FPassing clouds.3 mph89%29.86 "Hg5 mi
8:00 pm84 °FPassing clouds.3 mph79%29.83 "Hg5 mi
7:00 pm84 °FPassing clouds.8 mph79%29.83 "Hg5 mi
6:00 pm86 °FPassing clouds.8 mph75%29.80 "Hg5 mi
5:00 pm90 °FScattered clouds.8 mph67%29.80 "Hg5 mi
4:00 pm91 °FScattered clouds.8 mph63%29.80 "Hg5 mi
3:00 pm93 °FPartly sunny.10 mph59%29.80 "Hg5 mi
1:00 pm91 °FPartly sunny.13 mph63%29.86 "Hg5 mi
12:00 pm90 °FPartly sunny.8 mph71%29.89 "Hg5 mi
11:00 am88 °FPartly sunny.7 mph75%29.89 "Hg5 mi
10:00 am86 °FPartly sunny.6 mph79%29.92 "Hg4 mi
9:00 am82 °FHaze.2 mph89%29.89 "Hg2 mi
8:00 am79 °FHaze.2 mph94%29.89 "Hg2 mi
7:00 am79 °FHaze.2 mph94%29.86 "Hg3 mi
6:00 am79 °FPassing clouds.2 mph94%29.83 "Hg4 mi
5:00 am79 °FPassing clouds.2 mph100%29.83 "Hg4 mi
4:00 am81 °FPassing clouds.2 mph94%29.83 "Hg5 mi
3:00 am81 °FPassing clouds.2 mph94%29.83 "Hg5 mi
2:00 am81 °FPassing clouds.2 mph94%29.83 "Hg5 mi
1:00 am81 °FPassing clouds.3 mph94%29.86 "Hg5 mi
Weather by CustomWeather, © 2017

See weather overviewHow to use our weather pages